Location: Eisingen in Unterfranken
(49.7591°N, 9.8347°E)
Time: 03:55:51
(UTC+01:00)

BlueWalker 3 - Pass Details

Date: 07 December 2022
Orbit: 499 x 517 km, 53.2° (Epoch: 26 January)

Event Time Altitude Azimuth Distance (km) Brightness Sun altitude
Rises 16:58:24 0° 284° (WNW) 2,637 6.4 -6.0°
Reaches altitude 10° 17:00:39 10° 290° (WNW) 1,746 5.3 -6.4°
Maximum altitude 17:04:32 53° 7° (N) 638 2.2 -6.9°
Drops below altitude 10° 17:08:22 10° 86° (E) 1,730 4.1 -7.5°
Enters shadow 17:08:51 - 87° (E) 1,918 4.3 -7.5°
